| time (UTC) | temp F | wind direction | speed MPH | gust MPH | rain 1hr in | rain 24hr in | rain mn in | humidity % | barometer mb |
| 20260503212336 | 64 | 9 | 1.0 | 3.0 | 0.00 | 0.00 | 0.00 | 29 | 1013.0 |
| 20260503211912 | 64 | 19 | 0.0 | 4.0 | 0.00 | 0.00 | 0.00 | 27 | 1013.1 |
| 20260503211340 | 64 | 215 | 2.0 | 4.0 | 0.00 | 0.00 | 0.00 | 27 | 1013.1 |
| 20260503210841 | 64 | 302 | 1.0 | 4.0 | 0.00 | 0.00 | 0.00 | 25 | 1013.1 |
| 20260503210341 | 65 | 226 | 1.0 | 4.0 | 0.00 | 0.00 | 0.00 | 26 | 1013.0 |
| 20260503205858 | 66 | 244 | 2.0 | 4.0 | 0.00 | 0.00 | 0.00 | 24 | 1013.0 |
| 20260503205356 | 66 | 267 | 1.0 | 2.0 | 0.00 | 0.00 | 0.00 | 26 | 1013.1 |
| 20260503204854 | 66 | 45 | 0.0 | 3.0 | 0.00 | 0.00 | 0.00 | 25 | 1013.1 |
| 20260503204335 | 66 | 71 | 1.0 | 5.0 | 0.00 | 0.00 | 0.00 | 25 | 1013.1 |
| 20260503203850 | 67 | 69 | 2.0 | 5.0 | 0.00 | 0.00 | 0.00 | 24 | 1013.1 |
| 20260503203354 | 67 | 360 | 2.0 | 4.0 | 0.00 | 0.00 | 0.00 | 25 | 1013.0 |
| 20260503202857 | 67 | 10 | 1.0 | 4.0 | 0.00 | 0.00 | 0.00 | 24 | 1013.0 |
| 20260503202335 | 68 | 168 | 1.0 | 4.0 | 0.00 | 0.00 | 0.00 | 24 | 1013.1 |
| 20260503201904 | 68 | 256 | 1.0 | 4.0 | 0.00 | 0.00 | 0.00 | 24 | 1013.1 |
| 20260503201351 | 68 | 54 | 1.0 | 2.0 | 0.00 | 0.00 | 0.00 | 24 | 1013.1 |
| 20260503200827 | 67 | 218 | 1.0 | 4.0 | 0.00 | 0.00 | 0.00 | 23 | 1013.2 |
| 20260503200405 | 67 | 360 | 2.0 | 4.0 | 0.00 | 0.00 | 0.00 | 24 | 1013.4 |
| 20260503195829 | 67 | 213 | 2.0 | 4.0 | 0.00 | 0.00 | 0.00 | 25 | 1013.5 |
| 20260503195330 | 67 | 60 | 1.0 | 6.0 | 0.00 | 0.00 | 0.00 | 25 | 1013.5 |
| 20260503194849 | 66 | 331 | 1.0 | 6.0 | 0.00 | 0.00 | 0.00 | 24 | 1013.6 |
| 20260503194405 | 66 | 30 | 1.0 | 4.0 | 0.00 | 0.00 | 0.00 | 24 | 1013.7 |
| 20260503193837 | 67 | 40 | 1.0 | 4.0 | 0.00 | 0.00 | 0.00 | 24 | 1013.7 |
| 20260503193330 | 68 | 255 | 2.0 | 4.0 | 0.00 | 0.00 | 0.00 | 23 | 1013.9 |
| 20260503192828 | 67 | 296 | 1.0 | 4.0 | 0.00 | 0.00 | 0.00 | 27 | 1014.0 |
| 20260503192406 | 67 | 173 | 1.0 | 4.0 | 0.00 | 0.00 | 0.00 | 25 | 1013.9 |
| 20260503191838 | 66 | 177 | 1.0 | 4.0 | 0.00 | 0.00 | 0.00 | 25 | 1014.0 |
| 20260503191335 | 66 | 249 | 2.0 | 4.0 | 0.00 | 0.00 | 0.00 | 24 | 1014.1 |
| 20260503190843 | 66 | 36 | 1.0 | 6.0 | 0.00 | 0.00 | 0.00 | 27 | 1014.2 |
| 20260503190342 | 66 | 313 | 2.0 | 6.0 | 0.00 | 0.00 | 0.00 | 25 | 1014.1 |
| 20260503185852 | 66 | 283 | 2.0 | 7.0 | 0.00 | 0.00 | 0.00 | 25 | 1014.2 |
| 20260503185340 | 65 | 9 | 2.0 | 7.0 | 0.00 | 0.00 | 0.00 | 25 | 1014.2 |
| 20260503184848 | 64 | 46 | 2.0 | 7.0 | 0.00 | 0.00 | 0.00 | 25 | 1014.3 |
| 20260503184350 | 64 | 281 | 2.0 | 4.0 | 0.00 | 0.00 | 0.00 | 25 | 1014.3 |
| 20260503183831 | 64 | 253 | 2.0 | 4.0 | 0.00 | 0.00 | 0.00 | 27 | 1014.4 |
| 20260503183333 | 65 | 33 | 2.0 | 5.0 | 0.00 | 0.00 | 0.00 | 25 | 1014.5 |
| 20260503182825 | 64 | 236 | 1.0 | 5.0 | 0.00 | 0.00 | 0.00 | 29 | 1014.4 |
| 20260503182352 | 64 | 318 | 2.0 | 4.0 | 0.00 | 0.00 | 0.00 | 28 | 1014.5 |
| 20260503181851 | 64 | 57 | 1.0 | 4.0 | 0.00 | 0.00 | 0.00 | 28 | 1014.5 |
| 20260503181356 | 64 | 230 | 2.0 | 4.0 | 0.00 | 0.00 | 0.00 | 26 | 1014.6 |
| 20260503180833 | 63 | 68 | 1.0 | 6.0 | 0.00 | 0.00 | 0.00 | 28 | 1014.6 |
| 20260503180404 | 64 | 198 | 2.0 | 6.0 | 0.00 | 0.00 | 0.00 | 27 | 1014.6 |
| 20260503175837 | 63 | 234 | 2.0 | 4.0 | 0.00 | 0.00 | 0.00 | 27 | 1014.6 |
| 20260503175334 | 63 | 355 | 1.0 | 4.0 | 0.00 | 0.00 | 0.00 | 28 | 1014.5 |
| 20260503174839 | 63 | 266 | 1.0 | 4.0 | 0.00 | 0.00 | 0.00 | 27 | 1014.6 |
| 20260503174351 | 62 | 261 | 2.0 | 6.0 | 0.00 | 0.00 | 0.00 | 28 | 1014.5 |
| 20260503173831 | 62 | 337 | 1.0 | 4.0 | 0.00 | 0.00 | 0.00 | 29 | 1014.6 |
| 20260503173404 | 62 | 298 | 2.0 | 5.0 | 0.00 | 0.00 | 0.00 | 29 | 1014.7 |
| 20260503172838 | 62 | 32 | 2.0 | 6.0 | 0.00 | 0.00 | 0.00 | 28 | 1014.9 |
| 20260503172355 | 61 | 38 | 2.0 | 7.0 | 0.00 | 0.00 | 0.00 | 27 | 1014.9 |
| 20260503171853 | 62 | 229 | 3.0 | 7.0 | 0.00 | 0.00 | 0.00 | 26 | 1014.9 |
| 20260503171359 | 62 | 349 | 1.0 | 4.0 | 0.00 | 0.00 | 0.00 | 28 | 1015.0 |
| 20260503170831 | 62 | 15 | 2.0 | 7.0 | 0.00 | 0.00 | 0.00 | 29 | 1015.1 |
| 20260503170330 | 62 | 306 | 2.0 | 7.0 | 0.00 | 0.00 | 0.00 | 27 | 1015.1 |
| 20260503035847 | 48 | 94 | 0.0 | 0.0 | 0.00 | 0.00 | 0.00 | 81 | 1010.5 |
| 20260503035347 | 48 | 94 | 0.0 | 0.0 | 0.00 | 0.00 | 0.00 | 81 | 1010.4 |
| 20260503034829 | 48 | 94 | 0.0 | 0.0 | 0.00 | 0.00 | 0.00 | 80 | 1010.5 |
| 20260503034343 | 48 | 94 | 0.0 | 0.0 | 0.00 | 0.00 | 0.00 | 80 | 1010.5 |
| 20260503033900 | 48 | 94 | 0.0 | 0.0 | 0.00 | 0.00 | 0.00 | 80 | 1010.5 |
| 20260503033338 | 48 | 94 | 0.0 | 0.0 | 0.00 | 0.00 | 0.00 | 80 | 1010.5 |
| 20260503032837 | 48 | 94 | 0.0 | 0.0 | 0.00 | 0.00 | 0.00 | 79 | 1010.4 |
| 20260503032333 | 49 | 94 | 0.0 | 0.0 | 0.00 | 0.00 | 0.00 | 79 | 1010.4 |
| 20260503031903 | 49 | 94 | 0.0 | 0.0 | 0.00 | 0.00 | 0.00 | 79 | 1010.4 |
| 20260503031331 | 49 | 94 | 0.0 | 0.0 | 0.00 | 0.00 | 0.00 | 79 | 1010.4 |
| 20260503030849 | 49 | 94 | 0.0 | 0.0 | 0.00 | 0.00 | 0.00 | 79 | 1010.5 |
| 20260503030356 | 49 | 94 | 0.0 | 0.0 | 0.00 | 0.00 | 0.00 | 79 | 1010.5 |
| 20260503025837 | 49 | 94 | 0.0 | 0.0 | 0.00 | 0.00 | 0.00 | 78 | 1010.5 |
| 20260503025331 | 49 | 94 | 0.0 | 0.0 | 0.00 | 0.00 | 0.00 | 78 | 1010.5 |
| 20260503024838 | 50 | 94 | 0.0 | 0.0 | 0.00 | 0.00 | 0.00 | 77 | 1010.6 |
| 20260503024341 | 50 | 94 | 0.0 | 0.0 | 0.00 | 0.00 | 0.00 | 77 | 1010.6 |
| 20260503023856 | 50 | 94 | 0.0 | 0.0 | 0.00 | 0.00 | 0.00 | 76 | 1010.5 |
| 20260503023340 | 50 | 94 | 0.0 | 0.0 | 0.00 | 0.00 | 0.00 | 76 | 1010.4 |
| 20260503022838 | 51 | 94 | 0.0 | 0.0 | 0.00 | 0.00 | 0.00 | 75 | 1010.4 |
| 20260503022339 | 51 | 94 | 0.0 | 0.0 | 0.00 | 0.00 | 0.00 | 75 | 1010.4 |
| 20260503021908 | 51 | 94 | 0.0 | 0.0 | 0.00 | 0.00 | 0.00 | 75 | 1010.4 |
| 20260503021346 | 51 | 94 | 0.0 | 0.0 | 0.00 | 0.00 | 0.00 | 75 | 1010.4 |
| 20260503020844 | 51 | 94 | 0.0 | 0.0 | 0.00 | 0.00 | 0.00 | 75 | 1010.4 |
| 20260503020331 | 51 | 94 | 0.0 | 0.0 | 0.00 | 0.00 | 0.00 | 73 | 1010.5 |
| 20260503015842 | 52 | 94 | 0.0 | 0.0 | 0.00 | 0.00 | 0.00 | 73 | 1010.4 |
| 20260503015335 | 52 | 94 | 0.0 | 0.0 | 0.00 | 0.00 | 0.00 | 73 | 1010.4 |
| 20260503014841 | 52 | 94 | 0.0 | 0.0 | 0.00 | 0.00 | 0.00 | 74 | 1010.4 |
| 20260503014355 | 52 | 94 | 0.0 | 0.0 | 0.00 | 0.00 | 0.00 | 73 | 1010.3 |
| 20260503013850 | 52 | 94 | 0.0 | 0.0 | 0.00 | 0.00 | 0.00 | 72 | 1010.3 |
| 20260503013400 | 52 | 94 | 0.0 | 0.0 | 0.00 | 0.00 | 0.00 | 71 | 1010.3 |
| 20260503012831 | 52 | 94 | 0.0 | 0.0 | 0.00 | 0.00 | 0.00 | 71 | 1010.3 |
| 20260503012330 | 53 | 94 | 0.0 | 0.0 | 0.00 | 0.00 | 0.00 | 70 | 1010.4 |
| 20260503011853 | 53 | 94 | 0.0 | 0.0 | 0.00 | 0.00 | 0.00 | 70 | 1010.3 |
| 20260503011350 | 53 | 94 | 0.0 | 0.0 | 0.00 | 0.00 | 0.00 | 69 | 1010.2 |
| 20260503010854 | 53 | 94 | 0.0 | 0.0 | 0.00 | 0.00 | 0.00 | 68 | 1010.1 |
| 20260503010328 | 53 | 94 | 0.0 | 0.0 | 0.00 | 0.00 | 0.00 | 68 | 1010.0 |
| 20260503005828 | 53 | 94 | 0.0 | 0.0 | 0.00 | 0.00 | 0.00 | 67 | 1010.1 |
| 20260503005327 | 54 | 94 | 0.0 | 0.0 | 0.00 | 0.00 | 0.00 | 67 | 1010.0 |
| 20260503004847 | 54 | 94 | 0.0 | 0.0 | 0.00 | 0.00 | 0.00 | 66 | 1010.0 |
| 20260503004346 | 54 | 94 | 0.0 | 0.0 | 0.00 | 0.00 | 0.00 | 65 | 1009.9 |
| 20260503003839 | 54 | 94 | 0.0 | 0.0 | 0.00 | 0.00 | 0.00 | 64 | 1010.0 |
| 20260503003331 | 54 | 94 | 0.0 | 0.0 | 0.00 | 0.00 | 0.00 | 65 | 1009.7 |
| 20260503002834 | 54 | 94 | 0.0 | 0.0 | 0.00 | 0.00 | 0.00 | 63 | 1009.7 |
| 20260503002328 | 55 | 94 | 0.0 | 0.0 | 0.00 | 0.00 | 0.00 | 62 | 1009.8 |
| 20260503001847 | 55 | 94 | 0.0 | 0.0 | 0.00 | 0.00 | 0.00 | 61 | 1009.6 |
| 20260503001335 | 55 | 94 | 0.0 | 0.0 | 0.00 | 0.00 | 0.00 | 61 | 1009.5 |
| 20260503000900 | 55 | 94 | 0.0 | 0.0 | 0.00 | 0.00 | 0.00 | 62 | 1009.4 |
| 20260503000355 | 56 | 94 | 0.0 | 0.0 | 0.00 | 0.00 | 0.00 | 60 | 1009.5 |
| 20260502235834 | 56 | 94 | 0.0 | 0.0 | 0.00 | 0.00 | 0.00 | 58 | 1009.3 |
| 20260502235333 | 56 | 94 | 0.0 | 0.0 | 0.00 | 0.00 | 0.00 | 58 | 1009.3 |
| 20260502234843 | 56 | 94 | 0.0 | 0.0 | 0.00 | 0.00 | 0.00 | 57 | 1009.3 |
| 20260502234359 | 56 | 94 | 0.0 | 0.0 | 0.00 | 0.00 | 0.00 | 57 | 1009.2 |
| 20260502233843 | 57 | 94 | 0.0 | 0.0 | 0.00 | 0.00 | 0.00 | 54 | 1009.2 |
| 20260502233340 | 57 | 94 | 0.0 | 0.0 | 0.00 | 0.00 | 0.00 | 54 | 1009.1 |
| 20260502232854 | 57 | 94 | 0.0 | 0.0 | 0.00 | 0.00 | 0.00 | 53 | 1009.1 |
| 20260502232329 | 57 | 94 | 0.0 | 0.0 | 0.00 | 0.00 | 0.00 | 52 | 1009.1 |
| 20260502231833 | 58 | 94 | 0.0 | 0.0 | 0.00 | 0.00 | 0.00 | 51 | 1009.0 |
| 20260502231402 | 58 | 94 | 0.0 | 1.0 | 0.00 | 0.00 | 0.00 | 51 | 1008.8 |
| 20260502230842 | 58 | 94 | 0.0 | 1.0 | 0.00 | 0.00 | 0.00 | 48 | 1008.9 |
| 20260502230343 | 58 | 94 | 0.0 | 1.0 | 0.00 | 0.00 | 0.00 | 51 | 1008.8 |
| 20260502225843 | 58 | 94 | 0.0 | 2.0 | 0.00 | 0.00 | 0.00 | 50 | 1008.8 |
| 20260502225338 | 59 | 94 | 0.0 | 2.0 | 0.00 | 0.00 | 0.00 | 49 | 1009.0 |
| 20260502224834 | 59 | 88 | 0.0 | 0.0 | 0.00 | 0.00 | 0.00 | 46 | 1009.0 |
| 20260502224333 | 59 | 89 | 0.0 | 1.0 | 0.00 | 0.00 | 0.00 | 48 | 1009.0 |
| 20260502223832 | 59 | 88 | 0.0 | 1.0 | 0.00 | 0.00 | 0.00 | 44 | 1008.9 |
| 20260502223401 | 59 | 88 | 0.0 | 1.0 | 0.00 | 0.00 | 0.00 | 46 | 1009.0 |
| 20260502222833 | 59 | 90 | 0.0 | 0.0 | 0.00 | 0.00 | 0.00 | 45 | 1009.0 |
| 20260502222336 | 59 | 90 | 0.0 | 1.0 | 0.00 | 0.00 | 0.00 | 44 | 1009.0 |
| 20260502221853 | 59 | 90 | 0.0 | 3.0 | 0.00 | 0.00 | 0.00 | 42 | 1009.0 |
| 20260502221348 | 59 | 84 | 0.0 | 3.0 | 0.00 | 0.00 | 0.00 | 41 | 1009.1 |
| 20260502220848 | 59 | 22 | 0.0 | 2.0 | 0.00 | 0.00 | 0.00 | 44 | 1009.0 |
| 20260502215842 | 60 | 328 | 0.0 | 2.0 | 0.00 | 0.00 | 0.00 | 41 | 1009.1 |
| 20260502215345 | 60 | 346 | 0.0 | 1.0 | 0.00 | 0.00 | 0.00 | 43 | 1009.1 |
| 20260502214836 | 60 | 346 | 0.0 | 1.0 | 0.00 | 0.00 | 0.00 | 43 | 1009.0 |
| 20260502214338 | 60 | 346 | 0.0 | 2.0 | 0.00 | 0.00 | 0.00 | 45 | 1009.0 |
| 20260502213831 | 60 | 277 | 0.0 | 2.0 | 0.00 | 0.00 | 0.00 | 43 | 1008.9 |
| 20260502213329 | 60 | 269 | 1.0 | 2.0 | 0.00 | 0.00 | 0.00 | 42 | 1009.0 |
| 20260502212830 | 60 | 263 | 1.0 | 2.0 | 0.00 | 0.00 | 0.00 | 43 | 1008.9 |